Regional Weather Roundup
Issued by NWS

Home | Current Version | Previous Version | Graphics & Text | Print | Product List | Glossary Off
Versions: 1 2 3 4 5 6 7 8 9 10 11 12 13 14 15 16 17 18 19 20 21 22 23 24 25 26 27 28 29 30 31 32 33 34 35 36 37 38 39 40 41 42 43 44 45 46 47 48 49 50

488
ASUS43 KDMX 210701
RWRIA

WEATHER ROUNDUP FOR IOWA
NATIONAL WEATHER SERVICE DES MOINES IA
100 AM CST TUE FEB 21 2017

NOTE: "FAIR" INDICATES FEW OR NO CLOUDS BELOW 12,000 FEET WITH NO
SIGNIFICANT WEATHER AND/OR OBSTRUCTIONS TO VISIBILITY.

* - THESE STATIONS ARE NOT NWS STATIONS...THUS NOT UNDER NWS
QUALITY CONTROL.  THEY ALSO DO NOT REPORT WEATHER SUCH
AS PRECIPITATION OR FOG.

IAZ001>003-012>014-020>022-031>034-043>046-210800-
   NORTHWEST IOWA

CITY           SKY/WX    TMP DP  RH WIND       PRES   REMARKS
CARROLL *      CLEAR     37  37 100 NW10      29.95R WCI  30
CHEROKEE *     CLEAR     32  32 100 CALM      29.94S FOG
DENISON *      CLEAR     36  36 100 SE3       29.94R FOG
LE MARS *      CLEAR     32  32 100 CALM      29.94F FOG
SHELDON *      CLEAR     32  32 100 SE3       29.90F FOG
SIOUX CITY     FOG       32  32 100 S3        29.95R VSB 1/2
SPENCER        CLEAR     35  34  96 SW5       29.92R WCI  31
STORM LAKE *   CLEAR     41  39  93 W8        29.94S
$$

IAZ055>058-069>071-079>083-090>094-210800-
   SOUTHWEST IOWA

CITY           SKY/WX    TMP DP  RH WIND       PRES   REMARKS
ATLANTIC *     CLEAR     37  37 100 CALM      29.96R
CLARINDA *     CLEAR     41  41 100 CALM      29.96R FOG
COUNCIL BLFS * CLEAR     46  45  93 NW6       29.96R
CRESTON *      CLOUDY    46  45  93 N6        29.95R
HARLAN  *      CLEAR     34  34 100 CALM      29.99R
LAMONI         CLOUDY    50  46  86 N7        29.91S
RED OAK *      CLEAR     39  39 100 CALM      29.96R
SHENANDOAH *   CLEAR     43  41  93 CALM      29.96R
$$

IAZ047>049-059>061-072>074-084-210800-
   CENTRAL IOWA

CITY           SKY/WX    TMP DP  RH WIND       PRES   REMARKS
AMES           CLOUDY    44  43  96 NW7       29.93R
ANKENY *       PTCLDY    46  43  87 NW7       29.94R
BOONE *        CLEAR     45  45 100 NW9       29.93R
CHARITON *     CLOUDY    50  46  87 N5        29.91S
DES MOINES     CLOUDY    50  44  80 N8        29.93R
GRINNELL*      CLOUDY    47  44  90 NW7       29.92R
KNOXVILLE *    CLOUDY    50  46  87 N5        29.90S
MARSHALLTOWN   CLOUDY    41  40  96 NW12      29.91R
NEWTON *       CLOUDY    48  45  87 NW9       29.91R
PELLA *        CLOUDY    50  46  87 CALM      29.92S
PERRY *          N/A     42  40  94 W7        29.94R
$$

IAZ004>006-015-016-023>025-035-036-210800-
   NORTH CENTRAL IOWA

CITY           SKY/WX    TMP DP  RH WIND       PRES   REMARKS
ALGONA *       CLEAR     37  37 100 W8        29.92S WCI  31
CLARION *      CLEAR     39  39 100 W6        29.93R WCI  35
ESTHERVILLE    CLEAR     36  36 100 W6        29.90R WCI  31
FORT DODGE *   CLEAR     37  36  93 CALM      29.94R
MASON CITY     CLEAR     39  37  92 W10       29.92R WCI  32
FOREST CITY *    N/A     36  36 100 W3        29.92R
IOWA FALLS *     N/A     41  39  94 W5        29.93R
$$

IAZ007>011-017>019-026>030-037>042-050>054-066-210800-
   NORTHEAST IOWA

CITY           SKY/WX    TMP DP  RH WIND       PRES   REMARKS
CEDAR RAPIDS   CLOUDY    50  48  93 NW10      29.89S
CHARLES CITY * CLEAR     43  43 100 W7        29.91R
CLINTON *      LGT RAIN  54  53  97 S8        29.89
DECORAH *      CLOUDY    45  43  93 VRB6      29.87R
DUBUQUE        FOG       52  52 100 SW9       29.87S VSB 1/4
MONTICELLO *   CLOUDY    55  55 100 W9        29.87F
OELWEIN *      CLOUDY    46  46 100 W10       29.88F
WATERLOO       CLOUDY    46  42  86 NW7       29.90R
$$

IAZ064-065-067-068-078-210800-
   EAST CENTRAL IOWA

CITY           SKY/WX    TMP DP  RH WIND       PRES   REMARKS
DAVENPORT      LGT RAIN  56  55  97 S9        29.89F
IOWA CITY      CLOUDY    56  55  97 W5        29.90S
MUSCATINE *    CLOUDY    57  55  94 S5        29.89F
QUAD CITIES    CLOUDY    60  55  83 S9        29.89S
$$

IAZ062-063-075>077-085>089-095>099-210800-
   SOUTHEAST IOWA

CITY           SKY/WX    TMP DP  RH WIND       PRES   REMARKS
BURLINGTON     CLOUDY    57  57 100 S6        29.90F FOG
FAIRFIELD *    CLOUDY    57  55  94 W7        29.90S
KEOKUK *       CLOUDY    57  57 100 S6        29.92R
OTTUMWA        CLOUDY    53  48  83 NW12      29.90R
WASHINGTON *   CLOUDY    57  57 100 SW6       29.90S
$$

ABBREVIATIONS USED IN REMARKS
   TC - TEMPERATURES IN CELSIUS
  WCI - WIND CHILL INDEX
   HX - HEAT INDEX
  VSB - VISIBILITY
$$





USA.gov is the U.S. government's official web portal to all federal, state and local government web resources and services.